• In Deutschland
  • Länderverzeichnis
  • Für 7 Tage
  • Wassertemperatur
  • Satellitenkarten
  • Wetterkarte
  • Widgets
  • user-avatar
    Anmelden

    Stündliche Wetter Nauchnyi

    Heute, 24 Mai, Donnerstag

    Zeit Temperatur Niederschläge Wind Luftdruck Luftfeuchtigkeit
    00:00 +16°C° 0 mm 1 m/S 717 mmHg 82%
    01:00 +16°C° 0 mm 1 m/S 717 mmHg 82%
    02:00 +16°C° 0 mm 2 m/S 717 mmHg 82%
    03:00 +16°C° 0 mm 2 m/S 717 mmHg 82%
    04:00 +16°C° 0 mm 2 m/S 717 mmHg 82%
    05:00 +16°C° 0 mm 2 m/S 717 mmHg 82%
    06:00 +18°C° 0,1 mm 2 m/S 717 mmHg 77%
    07:00 +20°C° 0,1 mm 3 m/S 717 mmHg 72%
    08:00 +22°C° 0 mm 3 m/S 717 mmHg 67%
    09:00 +24°C° 0,8 mm 3 m/S 717 mmHg 66%
    10:00 +24°C° 0,8 mm 3 m/S 717 mmHg 65%
    11:00 +25°C° 0,8 mm 3 m/S 717 mmHg 64%
    12:00 +24°C° 1,1 mm 3 m/S 717 mmHg 65%
    13:00 +24°C° 1,1 mm 3 m/S 717 mmHg 65%
    14:00 +24°C° 1,1 mm 3 m/S 717 mmHg 66%
    15:00 +24°C° 0,5 mm 2 m/S 716 mmHg 66%
    16:00 +24°C° 0,5 mm 2 m/S 716 mmHg 67%
    17:00 +23°C° 0,5 mm 2 m/S 716 mmHg 68%
    18:00 +21°C° 0,2 mm 2 m/S 715 mmHg 71%
    19:00 +19°C° 0,2 mm 2 m/S 715 mmHg 74%
    20:00 +18°C° 0,2 mm 2 m/S 715 mmHg 77%
    21:00 +17°C° 0 mm 2 m/S 715 mmHg 76%
    22:00 +17°C° 0 mm 2 m/S 715 mmHg 76%
    23:00 +17°C° 0 mm 2 m/S 715 mmHg 75%

    Morgen, 25 Mai, Freitag

    Zeit Temperatur Niederschläge Wind Luftdruck Luftfeuchtigkeit
    00:00 +16°C° 0 mm 2 m/S 715 mmHg 76%
    01:00 +16°C° 0 mm 2 m/S 714 mmHg 78%
    02:00 +15°C° 0 mm 2 m/S 714 mmHg 79%
    03:00 +14°C° 0 mm 3 m/S 714 mmHg 82%
    04:00 +14°C° 0 mm 3 m/S 714 mmHg 84%
    05:00 +14°C° 0 mm 4 m/S 714 mmHg 87%
    06:00 +17°C° 0 mm 4 m/S 714 mmHg 80%
    07:00 +19°C° 0 mm 4 m/S 715 mmHg 74%
    08:00 +21°C° 0 mm 4 m/S 715 mmHg 67%
    09:00 +22°C° 0 mm 4 m/S 715 mmHg 64%
    10:00 +23°C° 0 mm 4 m/S 715 mmHg 60%
    11:00 +25°C° 0 mm 4 m/S 715 mmHg 57%
    12:00 +25°C° 0 mm 4 m/S 715 mmHg 57%
    13:00 +25°C° 0 mm 3 m/S 715 mmHg 58%
    14:00 +25°C° 0 mm 3 m/S 715 mmHg 58%
    15:00 +24°C° 0 mm 3 m/S 715 mmHg 61%
    16:00 +24°C° 0 mm 3 m/S 715 mmHg 63%
    17:00 +22°C° 0 mm 3 m/S 715 mmHg 66%
    18:00 +21°C° 0 mm 3 m/S 715 mmHg 72%
    19:00 +19°C° 0 mm 3 m/S 715 mmHg 77%
    20:00 +18°C° 0 mm 3 m/S 715 mmHg 83%
    21:00 +17°C° 0 mm 3 m/S 715 mmHg 86%
    22:00 +16°C° 0 mm 3 m/S 715 mmHg 89%
    23:00 +16°C° 0 mm 3 m/S 715 mmHg 92%

    übermorgen, 26 Mai, Samstag

    Zeit Temperatur Niederschläge Wind Luftdruck Luftfeuchtigkeit
    00:00 +14°C° 0 mm 3 m/S 715 mmHg 93%
    01:00 +14°C° 0 mm 3 m/S 715 mmHg 95%
    02:00 +14°C° 0 mm 4 m/S 715 mmHg 96%
    03:00 +14°C° 0 mm 4 m/S 715 mmHg 96%
    04:00 +15°C° 0 mm 4 m/S 715 mmHg 95%
    05:00 +15°C° 0 mm 5 m/S 715 mmHg 95%
    06:00 +16°C° 0 mm 5 m/S 716 mmHg 90%
    07:00 +17°C° 0 mm 5 m/S 716 mmHg 85%
    08:00 +19°C° 0 mm 5 m/S 716 mmHg 80%
    09:00 +20°C° 0 mm 5 m/S 717 mmHg 78%
    10:00 +20°C° 0 mm 5 m/S 717 mmHg 76%
    11:00 +21°C° 0 mm 5 m/S 717 mmHg 74%
    12:00 +21°C° 0 mm 6 m/S 717 mmHg 75%
    13:00 +20°C° 0 mm 6 m/S 717 mmHg 75%
    14:00 +20°C° 0 mm 6 m/S 717 mmHg 75%
    15:00 +20°C° 0 mm 7 m/S 717 mmHg 75%
    16:00 +18°C° 0 mm 7 m/S 717 mmHg 76%
    17:00 +18°C° 0 mm 7 m/S 717 mmHg 77%
    18:00 +17°C° 0 mm 7 m/S 718 mmHg 79%
    19:00 +16°C° 0 mm 7 m/S 718 mmHg 81%
    20:00 +15°C° 0 mm 7 m/S 718 mmHg 82%
    21:00 +15°C° 0 mm 7 m/S 718 mmHg 83%
    22:00 +15°C° 0 mm 7 m/S 718 mmHg 83%
    23:00 +14°C° 0 mm 7 m/S 718 mmHg 84%

    27 Mai, Sonntag

    Zeit Temperatur Niederschläge Wind Luftdruck Luftfeuchtigkeit
    00:00 +14°C° 0 mm 7 m/S 718 mmHg 81%
    01:00 +12°C° 0 mm 7 m/S 718 mmHg 77%
    02:00 +12°C° 0 mm 7 m/S 717 mmHg 74%
    03:00 +12°C° 0 mm 7 m/S 717 mmHg 72%
    04:00 +12°C° 0 mm 7 m/S 717 mmHg 70%
    05:00 +11°C° 0 mm 7 m/S 717 mmHg 68%
    06:00 +14°C° 0 mm 7 m/S 717 mmHg 64%
    07:00 +15°C° 0 mm 8 m/S 717 mmHg 60%
    08:00 +16°C° 0 mm 8 m/S 718 mmHg 56%
    09:00 +17°C° 0 mm 8 m/S 718 mmHg 55%
    10:00 +18°C° 0 mm 8 m/S 718 mmHg 54%
    11:00 +20°C° 0 mm 7 m/S 718 mmHg 53%
    12:00 +21°C° 0 mm 7 m/S 718 mmHg 53%
    13:00 +21°C° 0 mm 7 m/S 718 mmHg 54%
    14:00 +21°C° 0 mm 7 m/S 718 mmHg 55%
    15:00 +21°C° 0 mm 7 m/S 718 mmHg 58%
    16:00 +20°C° 0 mm 6 m/S 718 mmHg 61%
    17:00 +20°C° 0 mm 6 m/S 718 mmHg 64%
    18:00 +17°C° 0 mm 6 m/S 718 mmHg 70%
    19:00 +16°C° 0 mm 5 m/S 718 mmHg 75%
    20:00 +14°C° 0 mm 5 m/S 718 mmHg 80%
    21:00 +14°C° 0 mm 5 m/S 718 mmHg 82%
    22:00 +13°C° 0 mm 5 m/S 718 mmHg 84%
    23:00 +13°C° 0 mm 4 m/S 718 mmHg 86%

    28 Mai, Montag

    Zeit Temperatur Niederschläge Wind Luftdruck Luftfeuchtigkeit
    00:00 +13°C° 0 mm 4 m/S 718 mmHg 87%
    01:00 +12°C° 0 mm 4 m/S 718 mmHg 88%
    02:00 +12°C° 0 mm 4 m/S 718 mmHg 88%
    03:00 +12°C° 0 mm 4 m/S 718 mmHg 88%
    04:00 +13°C° 0 mm 5 m/S 718 mmHg 88%
    05:00 +13°C° 0 mm 5 m/S 718 mmHg 87%
    06:00 +14°C° 0 mm 5 m/S 718 mmHg 80%
    07:00 +16°C° 0 mm 5 m/S 719 mmHg 73%
    08:00 +17°C° 0 mm 5 m/S 719 mmHg 66%
    09:00 +19°C° 0 mm 5 m/S 719 mmHg 63%
    10:00 +20°C° 0 mm 5 m/S 719 mmHg 60%
    11:00 +22°C° 0 mm 5 m/S 720 mmHg 57%
    12:00 +21°C° 0 mm 5 m/S 720 mmHg 58%
    13:00 +21°C° 0 mm 5 m/S 720 mmHg 58%
    14:00 +21°C° 0 mm 6 m/S 719 mmHg 59%
    15:00 +20°C° 0 mm 6 m/S 719 mmHg 61%
    16:00 +20°C° 0 mm 6 m/S 719 mmHg 64%
    17:00 +19°C° 0 mm 6 m/S 719 mmHg 66%
    18:00 +16°C° 0 mm 6 m/S 719 mmHg 71%
    19:00 +15°C° 0 mm 5 m/S 719 mmHg 76%
    20:00 +14°C° 0 mm 5 m/S 719 mmHg 81%
    21:00 +14°C° 0 mm 5 m/S 719 mmHg 82%
    22:00 +13°C° 0 mm 6 m/S 719 mmHg 82%
    23:00 +13°C° 0 mm 6 m/S 719 mmHg 83%

    29 Mai, Dienstag

    Zeit Temperatur Niederschläge Wind Luftdruck Luftfeuchtigkeit
    00:00 +13°C° 0 mm 6 m/S 719 mmHg 82%
    01:00 +13°C° 0 mm 6 m/S 719 mmHg 81%
    02:00 +13°C° 0 mm 6 m/S 718 mmHg 81%
    03:00 +13°C° 0 mm 6 m/S 718 mmHg 77%
    04:00 +12°C° 0 mm 7 m/S 718 mmHg 73%
    05:00 +12°C° 0 mm 7 m/S 718 mmHg 69%
    06:00 +15°C° 0 mm 8 m/S 719 mmHg 63%
    07:00 +17°C° 0 mm 8 m/S 719 mmHg 58%
    08:00 +18°C° 0 mm 8 m/S 719 mmHg 52%
    09:00 +19°C° 0 mm 9 m/S 719 mmHg 51%
    10:00 +21°C° 0 mm 9 m/S 719 mmHg 51%
    11:00 +22°C° 0 mm 9 m/S 719 mmHg 50%
    12:00 +22°C° 0 mm 9 m/S 719 mmHg 50%
    13:00 +22°C° 0 mm 9 m/S 719 mmHg 51%
    14:00 +22°C° 0 mm 9 m/S 719 mmHg 51%
    15:00 +21°C° 0 mm 10 m/S 719 mmHg 54%
    16:00 +19°C° 0 mm 10 m/S 719 mmHg 58%
    17:00 +19°C° 0 mm 10 m/S 718 mmHg 61%
    18:00 +18°C° 0 mm 10 m/S 718 mmHg 64%
    19:00 +17°C° 0 mm 10 m/S 718 mmHg 68%
    20:00 +16°C° 0 mm 9 m/S 718 mmHg 71%
    21:00 +16°C° 0 mm 10 m/S 718 mmHg 70%
    22:00 +14°C° 0 mm 10 m/S 717 mmHg 70%
    23:00 +14°C° 0 mm 10 m/S 717 mmHg 69%
    Mehr zeigen